#timestamp,LO_Frequency,Hit,StdDev 
1612911615.8,286046999.6,N
1612911635.6,286046999.3,N
1612911655.4,286046997.2,N
1612911675.3,286046997.6,N
1612911695.1,286046998.4,N
1612911715.8,286046995.6,N
1612911735.7,286046996.8,N
1612911755.5,286047000.3,N
1612911775.4,286047001.2,N
1612911795.2,286046993.9,N
1612911815.0,286046995.9,N
1612911815.9,286046995.9,N
1612911835.8,286046988.1,Y
1612911855.6,286046986.2,P
1612911875.4,286046974.2,P
1612911895.3,286046971.4,P
1612911915.1,286046970.7,N
1612911935.9,286046975.9,N
1612911955.7,286046981.3,N
1612911975.5,286046982.2,N
1612911995.4,286046987.6,N
1612912015.2,286046990.9,N
1612912035.0,286046991.7,N
1612912035.9,286046991.7,N
1612912055.8,286046996.1,N
1612912075.6,286046999.5,N
1612912095.5,286046988.8,N
1612912115.3,286046980.8,N
1612912135.2,286046984.7,N
1612912155.9,286046986.0,N
1612912175.8,286046986.8,N
1612912195.6,286046991.9,N
1612912215.4,286046994.4,N
1612912235.3,286046996.7,N
1612912255.1,286046994.5,N
1612912275.8,286046997.8,N
1612912295.7,286046999.1,N
1612912315.5,286047001.2,N
1612912335.4,286047004.4,N
1612912355.2,286047005.2,N
1612912375.0,286047007.9,N
1612912375.9,286047007.9,N
1612912395.8,286047011.3,N
1612912415.6,286047009.5,N
1612912435.5,286047005.9,N
1612912455.3,286047005.7,N
1612912475.1,286047000.1,N
1612912495.9,286046998.1,N
1612912515.7,286046999.2,N
1612912535.5,286047003.6,N
1612912555.4,286047001.5,N
1612912575.2,286047003.8,N
1612912595.1,286047004.9,N
1612912596.0,286047004.9,N
1612912615.8,286047010.1,N
1612912635.6,286047006.5,N
1612912655.5,286047012.4,N
1612912675.3,286047011.8,N
1612912695.1,286047013.1,N
1612912715.9,286047012.1,N
1612912735.7,286047013.9,N
1612912755.6,286047008.1,N
1612912775.4,286047001.4,N
1612912795.2,286046999.7,N
1612912815.1,286046999.3,N
1612912816.0,286046999.3,N
1612912835.8,286046999.6,N
1612912855.6,286047001.0,N
1612912875.5,286047002.9,N
1612912895.3,286047006.8,N
1612912915.2,286047012.3,N
1612912935.9,286047010.1,N
1612912955.7,286047007.4,N
1612912975.6,286047008.2,N
1612912995.4,286047006.1,N
1612913015.2,286047008.5,N
1612913035.1,286047004.7,N
1612913036.0,286047004.7,N
1612913055.8,286047003.1,N
1612913075.7,286047005.2,N
1612913095.5,286047008.1,N
1612913115.3,286047015.1,Y
1612913135.2,286047007.5,P
1612913155.0,286047003.3,P
1612913155.9,286047003.3,N
1612913175.7,286047005.3,N
1612913195.6,286046999.8,N
1612913215.4,286047003.7,N
1612913235.3,286047000.7,N
1612913255.1,286047004.0,N
1612913256.0,286047004.0,N
1612913275.8,286047001.6,N
1612913295.7,286047005.5,N
1612913315.5,286047004.3,N
1612913335.4,286047004.1,N
1612913355.2,286046994.9,N
1612913375.0,286046999.3,N
1612913375.9,286046999.3,N
1612913395.8,286046998.5,N
1612913415.6,286047003.6,N
1612913435.5,286047002.0,N
1612913455.3,286046998.5,N
1612913475.1,286047000.5,N
1612913495.9,286047002.2,N
1612913515.7,286046991.9,N
1612913535.5,286046992.2,N
1612913555.4,286046999.2,N
1612913575.2,286046995.6,N
1612913595.1,286046992.7,N
1612913596.0,286046992.7,N
1612913615.8,286046994.3,N
1612913635.6,286046986.6,Y
1612913655.5,286046989.4,P
1612913675.3,286046987.7,N
1612913695.2,286046987.9,N
1612913715.9,286046995.1,N
1612913735.7,286046996.8,N
1612913755.6,286047000.6,N
1612913775.4,286046997.9,N
1612913795.2,286046997.1,N
1612913815.1,286046997.2,N
1612913816.0,286046997.2,N
1612913835.8,286047004.4,N
1612913855.7,286047001.1,N
1612913875.5,286046991.6,N
1612913895.3,286046990.8,N
1612913915.2,286046985.9,N
1612913935.0,286046985.1,N
1612913935.9,286046985.1,N
1612913955.8,286046982.9,N
1612913975.6,286046981.5,N
1612913995.5,286046984.0,N
1612914015.3,286046991.2,N
1612914035.1,286046994.8,N
1612914055.9,286046988.8,N
1612914075.7,286046997.9,N
1612914095.5,286046997.8,N
1612914115.4,286046995.6,N
1612914135.2,286047001.6,N
1612914155.1,286047006.9,N
1612914156.0,286047006.9,N
1612914175.8,286047008.4,N
1612914195.6,286047015.9,N
1612914215.5,286047020.0,N
1612914235.3,286047018.4,N
1612914255.1,286047026.2,N
1612914275.9,286047026.9,N
1612914295.7,286047031.0,N
1612914315.6,286047033.0,N
1612914335.4,286047028.5,N
1612914355.2,286047031.1,N
1612914375.1,286047029.9,N
1612914376.0,286047029.9,N
1612914395.8,286047027.5,N
1612914415.7,286047025.5,N
1612914435.5,286047017.8,N
1612914455.3,286047018.3,N
1612914475.2,286047041.6,N
1612914495.0,286047037.0,N
1612914495.9,286047037.0,N
1612914515.7,286047009.5,N
1612914535.6,286047013.2,N
1612914555.4,286047014.9,N
1612914575.3,286047019.5,N
1612914595.1,286047021.2,N
1612914596.0,286047021.2,N
1612914615.8,286047019.8,N
1612914635.7,286047018.0,N
1612914655.5,286047017.7,N
1612914675.4,286047014.5,N
1612914695.2,286047015.1,N
1612914715.0,286047013.5,N
1612914715.9,286047013.5,N
1612914735.8,286047015.6,N
1612914755.6,286047012.4,N
1612914775.4,286047006.8,N
1612914795.3,286047002.5,N
1612914815.1,286046997.0,N
1612914835.9,286046986.7,N
1612914855.7,286046976.0,N
1612914875.5,286046974.9,N
1612914895.4,286046983.1,N
1612914915.2,286046976.8,N
1612914935.0,286046974.3,N
1612914935.9,286046974.3,N
1612914955.8,286046980.6,N
1612914975.6,286046987.5,N
1612914995.5,286046991.9,N
1612915015.3,286046995.6,N
1612915035.1,286046999.0,N
1612915055.9,286046998.2,N
1612915075.7,286047001.7,N
1612915095.6,286047001.4,N
1612915115.4,286047006.3,N
1612915135.2,286047011.3,N
1612915155.1,286047005.2,N
1612915156.0,286047005.2,N
1612915175.8,286047003.8,N
1612915195.6,286046998.1,N
